sat.trackr.live / text

‹ back to catalog

STARLINK-30943

NORAD 58449 · 2023-183N

PAYLOAD ACTIVE UNKNOWN

§ Identity

Operator
Country
US
Launch date
2023-11-28
Launch site
AFETR
Launch vehicle
Mass (kg)
RCS (m²)

Purposes: comms

External: N2YO · Heavens-Above · Gunter

§ Orbital elements

Epoch: 2026-05-25T03:14:50.028000Z

Period
94.27 min
Inclination
43.0015°
Eccentricity
0.0001403
Mean motion
15.27563801 rev/d
Perigee alt
482.1 km
Apogee alt
484.1 km
Semi-major
6,861.2 km
B*
2.8761e-5
RAAN
304.0314°
Arg perigee
279.5210°
Mean anomaly
80.5483°
Rev number
13,872

§ Raw data

STARLINK-309431 58449U 23183N   26145.13530125  .00000529  00000+0  28761-4 0  99982 58449  43.0015 304.0314 0001403 279.5210  80.5483 15.27563801138721

JSON: /api/v1/satellites/58449 · /tle

For live sub-satellite position, see the globe view (requires WebGL).

§ Visibility from observer

Set your observer location to see the next 7 days of passes ≥ 10°. The values pass through the URL so the page stays shareable.

No JS? Fill the form by hand. The geolocation button needs JavaScript.